Back to catalog

STARLINK-36261

AliveCommunicationsVLEO
NORAD 67105·PAYLOAD·🇺🇸 United States

Launched Dec 15, 2025 from Cape Canaveral Space Force Station

Loading…

Next Passes (next 24 hours)

TLE

FreshSource: CelesTrak SupGP

Epoch: Sep 14, 2026, 21:09 UTC

1 67105C 25299D   26257.88173611 -.00010601  00000+0 -38401-3 0  2578
2 67105  43.0028 180.6040 0001528 262.7658 327.0493 15.27580393    11

Track STARLINK-36261 in real time with AllMySat

Download on the App Store